Weather History for KTTF - June, 2012

Change the Weather History Date:

Thursday, June 28, 2012

  Actual Average Record
Temperature  
Mean Temperature 83 °F -  
Max Temperature 100 °F 82 °F 104 °F (1934)
Min Temperature 66 °F 62 °F 50 °F (1938)
Cooling Degree Days 18    
Growing Degree Days 33 (Base 50)    
Moisture  
Dew Point 60 °F    
Average Humidity 46    
Maximum Humidity 70    
Minimum Humidity 34    
Precipitation  
Precipitation 0.00 in - - ()
Sea Level Pressure  
Sea Level Pressure 29.76 in    
Wind  
Wind Speed 6 mph (WSW)    
Max Wind Speed 13 mph    
Max Gust Speed 18 mph    
Visibility 10 miles    
Events      
Averages and records for this station are not official NWS values.
T = Trace of Precipitation, MM = Missing Value Source: NWS Daily Summary

Daily Weather History Graph

Daily Weather History Graph

Search for Another Location

Airport or City:

Trip Planner

Search our weather history database for the weather conditions in past years. The results will help you decide how hot, cold, wet, or windy it might be!

Date:

Astronomy

Jun. 28, 2012 Rise Set
Actual Time 6:00 AM EDT 9:13 PM EDT
Civil Twilight 5:26 AM EDT 9:47 PM EDT
Nautical Twilight 4:42 AM EDT 10:31 PM EDT
Astronomical Twilight 3:49 AM EDT 11:24 PM EDT
Moon 3:43 PM EDT (6/28) 1:36 AM EDT (6/28)
Length of Visible Light 16h 20m
Length of Day
15h 12m
Waxing Gibbous, 67% of the Moon is Illuminated
Jun 28
Waxing Gibbous
Jul 3
Full
Jul 10
Last Quarter
Jul 19
New
Jul 26
First Quarter

Hourly Weather History & Observations

Time (EDT) Temp. Heat Index Dew Point Humidity Pressure Visibility Wind Dir Wind Speed Gust Speed Precip Events Conditions
12:15 AM 71.6 °F - 51.8 °F 50% 29.85 in 10.0 mi SSW 4.6 mph - N/A   Clear
12:55 AM 73.4 °F - 48.2 °F 41% 29.85 in 10.0 mi SSW 4.6 mph - N/A   Clear
1:15 AM 73.4 °F - 48.2 °F 41% 29.85 in 10.0 mi SSW 4.6 mph - N/A   Clear
1:35 AM 71.6 °F - 48.2 °F 43% 29.85 in 10.0 mi SW 3.5 mph - N/A   Clear
1:56 AM 71.6 °F - 48.2 °F 43% 29.84 in 10.0 mi SSW 4.6 mph - N/A   Clear
2:16 AM 71.6 °F - 48.2 °F 43% 29.83 in 10.0 mi SSW 4.6 mph - N/A   Clear
2:36 AM 71.6 °F - 48.2 °F 43% 29.82 in 10.0 mi SSW 4.6 mph - N/A   Clear
2:56 AM 71.6 °F - 50.0 °F 46% 29.83 in 10.0 mi SW 3.5 mph - N/A   Clear
3:16 AM 71.6 °F - 50.0 °F 46% 29.82 in 10.0 mi SSW 3.5 mph - N/A   Clear
3:31 AM 69.8 °F - 50.0 °F 49% 29.82 in 10.0 mi Calm Calm - N/A   Clear
3:51 AM 69.8 °F - 51.8 °F 53% 29.81 in 10.0 mi Calm Calm - N/A   Clear
4:11 AM 66.2 °F - 51.8 °F 60% 29.81 in 10.0 mi South 3.5 mph - N/A   Clear
4:32 AM 66.2 °F - 51.8 °F 60% 29.81 in 10.0 mi South 3.5 mph - N/A   Clear
4:52 AM 68.0 °F - 51.8 °F 56% 29.80 in 10.0 mi South 3.5 mph - N/A   Clear
5:12 AM 68.0 °F - 53.6 °F 60% 29.80 in 10.0 mi SSW 4.6 mph - N/A   Clear
5:32 AM 68.0 °F - 53.6 °F 60% 29.80 in 10.0 mi SSW 3.5 mph - N/A   Clear
5:52 AM 69.8 °F - 53.6 °F 56% 29.80 in 10.0 mi SSW 3.5 mph - N/A   Clear
6:32 AM 66.2 °F - 53.6 °F 64% 29.80 in 10.0 mi Calm Calm - N/A   Clear
6:53 AM 68.0 °F - 55.4 °F 64% 29.80 in 10.0 mi Calm Calm - N/A   Clear
7:13 AM 69.8 °F - 55.4 °F 60% 29.81 in 10.0 mi Calm Calm - N/A   Clear
7:33 AM 71.6 °F - 55.4 °F 57% 29.80 in 10.0 mi Calm Calm - N/A   Clear
7:53 AM 73.4 °F - 55.4 °F 53% 29.80 in 10.0 mi WSW 3.5 mph - N/A   Clear
8:13 AM 75.2 °F - 55.4 °F 50% 29.80 in 10.0 mi WSW 6.9 mph - N/A   Clear
8:33 AM 77.0 °F - 55.4 °F 47% 29.79 in 10.0 mi WSW 6.9 mph - N/A   Clear
8:53 AM 78.8 °F - 53.6 °F 42% 29.79 in 10.0 mi WSW 8.1 mph - N/A   Clear
9:13 AM 80.6 °F 80.5 °F 55.4 °F 42% 29.79 in 10.0 mi WSW 9.2 mph - N/A   Clear
9:34 AM 80.6 °F 80.3 °F 53.6 °F 39% 29.79 in 10.0 mi WSW 8.1 mph - N/A   Clear
9:54 AM 82.4 °F 81.7 °F 55.4 °F 39% 29.78 in 10.0 mi West 8.1 mph - N/A   Clear
10:14 AM 82.4 °F 81.7 °F 55.4 °F 39% 29.78 in 10.0 mi West 8.1 mph - N/A   Clear
10:34 AM 82.4 °F 81.7 °F 55.4 °F 39% 29.78 in 10.0 mi WSW 8.1 mph - N/A   Clear
10:54 AM 84.2 °F 83.5 °F 57.2 °F 40% 29.78 in 10.0 mi WSW 8.1 mph - N/A   Clear
11:14 AM 84.2 °F 83.5 °F 57.2 °F 40% 29.77 in 10.0 mi West 6.9 mph - N/A   Clear
11:34 AM 86.0 °F 84.9 °F 57.2 °F 37% 29.77 in 10.0 mi SW 5.8 mph - N/A   Clear
11:54 AM 87.8 °F 87.1 °F 59.0 °F 38% 29.77 in 10.0 mi SW 4.6 mph - N/A   Clear
12:15 PM 89.6 °F 88.9 °F 59.0 °F 36% 29.77 in 10.0 mi WSW 8.1 mph - N/A   Clear
12:35 PM 89.6 °F 88.9 °F 59.0 °F 36% 29.76 in 10.0 mi SSW 6.9 mph - N/A   Clear
12:55 PM 89.6 °F 89.5 °F 60.8 °F 38% 29.75 in 10.0 mi SSW 8.1 mph - N/A   Clear
1:15 PM 91.4 °F 91.4 °F 60.8 °F 36% 29.75 in 10.0 mi South 5.8 mph - N/A   Clear
1:35 PM 93.2 °F 93.3 °F 60.8 °F 34% 29.74 in 10.0 mi WSW 9.2 mph - N/A   Clear
1:55 PM 93.2 °F 93.3 °F 60.8 °F 34% 29.74 in 10.0 mi SSW 9.2 mph - N/A   Clear
2:15 PM 93.2 °F 94.1 °F 62.6 °F 36% 29.73 in 10.0 mi SSW 8.1 mph - N/A   Clear
2:36 PM 95.0 °F 96.0 °F 62.6 °F 34% 29.73 in 10.0 mi WSW 6.9 mph - N/A   Clear
2:56 PM 95.0 °F 96.0 °F 62.6 °F 34% 29.71 in 10.0 mi SSW 6.9 mph - N/A   Clear
3:16 PM 96.8 °F 99.0 °F 64.4 °F 34% 29.71 in 10.0 mi SW 8.1 mph - N/A   Clear
3:36 PM 96.8 °F 99.0 °F 64.4 °F 34% 29.71 in 10.0 mi SW 6.9 mph - N/A   Clear
3:56 PM 96.8 °F 99.0 °F 64.4 °F 34% 29.70 in 10.0 mi SW 9.2 mph - N/A   Clear
4:11 PM 98.6 °F 102.8 °F 66.2 °F 35% 29.70 in 10.0 mi SW 10.4 mph - N/A   Clear
4:31 PM 98.6 °F 102.8 °F 66.2 °F 35% 29.69 in 10.0 mi SW 6.9 mph - N/A   Clear
4:51 PM 98.6 °F 105.5 °F 69.8 °F 39% 29.69 in 10.0 mi SW 9.2 mph 16.1 mph N/A   Clear
5:12 PM 100.4 °F 107.8 °F 69.8 °F 37% 29.68 in 10.0 mi WSW 10.4 mph 18.4 mph N/A   Clear
5:32 PM 100.4 °F 106.3 °F 68.0 °F 35% 29.68 in 10.0 mi West 11.5 mph 17.3 mph N/A   Clear
5:52 PM 100.4 °F 106.3 °F 68.0 °F 35% 29.68 in 10.0 mi WNW 12.7 mph 18.4 mph N/A   Clear
6:12 PM 100.4 °F 107.8 °F 69.8 °F 37% 29.67 in 10.0 mi WNW 11.5 mph - N/A   Clear
6:32 PM 98.6 °F 105.5 °F 69.8 °F 39% 29.67 in 10.0 mi NW 8.1 mph 17.3 mph N/A   Clear
7:32 PM 96.8 °F 103.1 °F 69.8 °F 41% 29.68 in 10.0 mi WNW 9.2 mph - N/A   Clear
7:52 PM 96.8 °F 103.1 °F 69.8 °F 41% 29.69 in 10.0 mi WNW 12.7 mph 17.3 mph N/A   Clear
8:12 PM 95.0 °F 101.3 °F 69.8 °F 44% 29.70 in 10.0 mi WNW 11.5 mph 18.4 mph N/A   Clear
8:32 PM 93.2 °F 100.5 °F 71.6 °F 49% 29.70 in 10.0 mi WNW 11.5 mph - N/A   Clear
8:53 PM 91.4 °F 98.4 °F 71.6 °F 52% 29.71 in 10.0 mi WNW 8.1 mph - N/A   Clear
9:13 PM 91.4 °F 98.4 °F 71.6 °F 52% 29.71 in 10.0 mi WNW 9.2 mph - N/A   Clear
9:33 PM 89.6 °F 96.2 °F 71.6 °F 55% 29.71 in 10.0 mi West 5.8 mph - N/A   Clear
9:53 PM 87.8 °F 95.6 °F 73.4 °F 62% 29.71 in 10.0 mi WNW 5.8 mph - N/A   Clear
10:13 PM 87.8 °F 95.6 °F 73.4 °F 62% 29.72 in 10.0 mi WNW 6.9 mph - N/A   Clear
10:33 PM 87.8 °F 95.6 °F 73.4 °F 62% 29.73 in 10.0 mi WNW 6.9 mph - N/A   Clear
10:53 PM 87.8 °F 95.6 °F 73.4 °F 62% 29.74 in 10.0 mi WNW 6.9 mph - N/A   Clear
11:13 PM 86.0 °F 93.4 °F 73.4 °F 66% 29.75 in 10.0 mi WNW 8.1 mph - N/A   Clear
11:34 PM 86.0 °F 93.4 °F 73.4 °F 66% 29.76 in 10.0 mi WNW 10.4 mph - N/A   Clear
11:54 PM 84.2 °F 90.9 °F 73.4 °F 70% 29.77 in 10.0 mi WNW 8.1 mph - N/A   Clear